Location: Campos dos Goitacazes
(21.7500°S, 41.3000°W)
Time: 08:06:52
(UTC-03:00)

Hubble Space Telescope - Visible Passes

Search period start: 23 June 2024 00:00
Search period end: 03 July 2024 00:00
Orbit: 510 x 514 km, 28.5° (Epoch: 22 June)

Date Brightness Start Highest point End Pass type
(mag) Time Alt. Az. Time Alt. Az. Time Alt. Az.
23 Jun 1.4 17:51:55 10° W 17:55:45 43° SSW 17:58:49 15° SE visible
23 Jun 3.6 19:33:10 10° WSW 19:33:37 12° WSW 19:33:37 12° WSW visible
24 Jun 1.5 17:32:52 10° W 17:36:40 40° S 17:40:29 10° ESE visible
24 Jun 2.9 19:14:06 10° WSW 19:15:36 19° SW 19:15:36 19° SW visible
25 Jun 2.2 18:55:01 10° WSW 18:57:35 27° SSW 18:57:35 27° SSW visible
26 Jun 1.7 18:35:54 10° WSW 18:39:31 31° S 18:39:36 31° S visible
27 Jun 1.6 18:16:46 10° WSW 18:20:25 32° S 18:21:40 26° SE visible
28 Jun 1.6 17:57:37 10° WSW 18:01:18 34° S 18:03:48 17° ESE visible
28 Jun 3.6 19:38:06 10° WSW 19:38:37 13° WSW 19:38:37 13° WSW visible
29 Jun 1.5 17:38:27 10° WSW 17:42:11 36° S 17:45:54 10° ESE visible
29 Jun 2.6 19:18:56 10° WSW 19:20:50 27° WSW 19:20:50 27° WSW visible
30 Jun 1.1 18:59:45 10° WSW 19:03:09 61° W 19:03:09 61° W visible
01 Jul 0.9 18:40:35 10° WSW 18:44:34 67° NNW 18:45:37 45° NE visible
02 Jul 1.2 18:21:25 10° WSW 18:25:21 57° NNW 18:28:13 17° NE visible
